Weather History for Fairfield, IL

Change the Weather History Date:

Saturday, January 11, 2014

  Actual Average (KMVN) Record (KMVN)
Temperature  
Mean Temperature 42 °F -  
Max Temperature 46 °F 36 °F 64 °F (2005)
Min Temperature 37 °F 21 °F -7 °F (1997)
Degree Days  
Heating Degree Days 24    
Moisture  
Dew Point 34 °F    
Average Humidity 75    
Maximum Humidity 87    
Minimum Humidity 61    
Precipitation  
Precipitation 0.01 in - - ()
Sea Level Pressure  
Sea Level Pressure 29.72 in    
Wind  
Wind Speed 5 mph (WSW)    
Max Wind Speed 13 mph    
Max Gust Speed 18 mph    
Visibility 8 miles    
Events Fog , Rain    
Averages and records for this station are not official NWS values.
T = Trace of Precipitation, MM = Missing Value Source: NWS Daily Summary

Daily Weather History Graph

Daily Weather History Graph

Search for Another Location

Airport:

Trip Planner

Search our weather history database for the weather conditions in past years. The results will help you decide how hot, cold, wet, or windy it might be!

Date:

Astronomy

Jan. 11, 2014 Rise Set
Actual Time 7:10 AM CST 4:53 PM CST
Civil Twilight 6:41 AM CST 5:22 PM CST
Nautical Twilight 6:08 AM CST 5:54 PM CST
Astronomical Twilight 5:36 AM CST 6:26 PM CST
Moon 1:36 PM CST (1/11) 3:15 AM CST (1/11)
Length of Visible Light 10h 40m
Length of Day
9h 42m
Waxing Gibbous, 83% of the Moon is Illuminated
Jan 11
Waxing Gibbous
Jan 15
Full
Jan 23
Last Quarter
Jan 30
New
Feb 6
First Quarter

Hourly Weather History & Observations

Time (CST) Temp. Windchill Dew Point Humidity Pressure Visibility Wind Dir Wind Speed Gust Speed Precip Events Conditions
12:15 AM 44.6 °F - 39.2 °F 81% 29.60 in 1.0 mi Calm Calm - 0.01 in   Drizzle
12:35 AM 42.8 °F - 39.2 °F 87% 29.59 in 0.5 mi Calm Calm - 0.01 in   Light Drizzle
12:55 AM 42.8 °F - 39.2 °F 87% 29.57 in 0.2 mi Calm Calm - 0.01 in   Light Drizzle
1:15 AM 42.8 °F - 37.4 °F 81% 29.57 in 0.2 mi Calm Calm - N/A   Light Drizzle
1:35 AM 44.6 °F - 39.2 °F 81% 29.55 in 0.2 mi Calm Calm - N/A Rain Light Rain
1:55 AM 44.6 °F - 41.0 °F 87% 29.56 in 0.5 mi Calm Calm - N/A Fog Fog
2:15 AM 44.6 °F 42.2 °F 41.0 °F 87% 29.55 in 0.5 mi South 4.6 mph - N/A Fog Fog
2:35 AM 44.6 °F - 41.0 °F 87% 29.55 in 0.5 mi Calm Calm - N/A Fog Fog
2:55 AM 46.4 °F 43.5 °F 42.8 °F 87% 29.57 in 2.5 mi WSW 5.8 mph - N/A   Overcast
3:15 AM 46.4 °F 43.5 °F 42.8 °F 87% 29.56 in 7.0 mi SW 5.8 mph - N/A   Overcast
3:35 AM 46.4 °F 43.5 °F 42.8 °F 87% 29.55 in 2.0 mi WSW 5.8 mph - N/A   Overcast
3:55 AM 46.4 °F 42.9 °F 42.8 °F 87% 29.56 in 1.5 mi WSW 6.9 mph - N/A   Haze
4:15 AM 46.4 °F 41.5 °F 42.8 °F 87% 29.56 in 7.0 mi WSW 10.4 mph 16.1 mph N/A   Overcast
4:35 AM 46.4 °F 41.9 °F 42.8 °F 87% 29.57 in 10.0 mi WSW 9.2 mph - N/A   Mostly Cloudy
4:55 AM 46.4 °F 40.7 °F 42.8 °F 87% 29.57 in 10.0 mi WSW 12.7 mph - N/A   Mostly Cloudy
5:15 AM 46.4 °F 41.9 °F 41.0 °F 81% 29.58 in 10.0 mi WSW 9.2 mph - N/A   Overcast
5:35 AM 44.6 °F 39.2 °F 41.0 °F 87% 29.59 in 10.0 mi West 10.4 mph 17.3 mph N/A   Overcast
5:55 AM 44.6 °F 40.2 °F 39.2 °F 81% 29.60 in 10.0 mi West 8.1 mph 16.1 mph N/A   Mostly Cloudy
6:15 AM 42.8 °F 37.5 °F 35.6 °F 76% 29.60 in 10.0 mi WSW 9.2 mph 16.1 mph N/A   Scattered Clouds
6:35 AM 41.0 °F 34.7 °F 33.8 °F 76% 29.61 in 10.0 mi West 10.4 mph - N/A   Scattered Clouds
6:55 AM 41.0 °F 36.4 °F 33.8 °F 76% 29.62 in 10.0 mi West 6.9 mph - N/A   Mostly Cloudy
7:15 AM 41.0 °F 34.3 °F 35.6 °F 81% 29.63 in 10.0 mi WSW 11.5 mph - N/A   Overcast
7:35 AM 41.0 °F 34.7 °F 33.8 °F 76% 29.64 in 10.0 mi West 10.4 mph 17.3 mph N/A   Overcast
7:55 AM 41.0 °F 36.4 °F 33.8 °F 76% 29.65 in 10.0 mi West 6.9 mph - N/A   Overcast
8:15 AM 39.2 °F 35.9 °F 33.8 °F 81% 29.66 in 7.0 mi West 4.6 mph - N/A   Overcast
8:35 AM 39.2 °F 33.0 °F 33.8 °F 81% 29.67 in 10.0 mi WSW 9.2 mph - N/A   Overcast
8:55 AM 41.0 °F 37.1 °F 33.8 °F 76% 29.68 in 10.0 mi West 5.8 mph - N/A   Overcast
9:15 AM 39.2 °F 34.2 °F 33.8 °F 81% 29.69 in 10.0 mi West 6.9 mph - N/A   Overcast
9:35 AM 39.2 °F 35.0 °F 33.8 °F 81% 29.70 in 10.0 mi West 5.8 mph - N/A   Overcast
9:55 AM 39.2 °F 33.6 °F 32.0 °F 75% 29.71 in 10.0 mi West 8.1 mph - N/A   Overcast
10:15 AM 39.2 °F 33.6 °F 30.2 °F 70% 29.72 in 10.0 mi West 8.1 mph 17.3 mph N/A   Overcast
10:35 AM 39.2 °F 34.2 °F 30.2 °F 70% 29.73 in 10.0 mi WNW 6.9 mph 18.4 mph N/A   Overcast
10:55 AM 39.2 °F 35.0 °F 30.2 °F 70% 29.74 in 10.0 mi West 5.8 mph - N/A   Overcast
11:15 AM 39.2 °F 35.0 °F 32.0 °F 75% 29.74 in 10.0 mi West 5.8 mph - N/A   Overcast
11:35 AM 39.2 °F 34.2 °F 32.0 °F 75% 29.74 in 10.0 mi West 6.9 mph - N/A   Overcast
11:55 AM 39.2 °F 34.2 °F 32.0 °F 75% 29.73 in 10.0 mi West 6.9 mph - N/A   Overcast
12:15 PM 39.2 °F 34.2 °F 32.0 °F 75% 29.73 in 10.0 mi WSW 6.9 mph - N/A   Overcast
12:35 PM 39.2 °F 33.6 °F 32.0 °F 75% 29.72 in 10.0 mi West 8.1 mph - N/A   Overcast
12:55 PM 39.2 °F 33.6 °F 32.0 °F 75% 29.72 in 10.0 mi West 8.1 mph - N/A   Overcast
1:15 PM 39.2 °F 33.6 °F 32.0 °F 75% 29.72 in 10.0 mi West 8.1 mph - N/A   Overcast
1:35 PM 39.2 °F 33.0 °F 32.0 °F 75% 29.72 in 10.0 mi West 9.2 mph 16.1 mph N/A   Mostly Cloudy
1:55 PM 42.8 °F 36.2 °F 33.8 °F 70% 29.72 in 10.0 mi WSW 12.7 mph - N/A   Scattered Clouds
2:15 PM 42.8 °F 37.5 °F 32.0 °F 66% 29.73 in 10.0 mi WSW 9.2 mph 16.1 mph N/A   Scattered Clouds
2:35 PM 42.8 °F 37.0 °F 32.0 °F 66% 29.73 in 10.0 mi WSW 10.4 mph 17.3 mph N/A   Clear
2:55 PM 42.8 °F 38.6 °F 32.0 °F 66% 29.74 in 10.0 mi WSW 6.9 mph - N/A   Clear
3:15 PM 44.6 °F 39.7 °F 33.8 °F 66% 29.75 in 10.0 mi WSW 9.2 mph - N/A   Clear
3:35 PM 44.6 °F 40.2 °F 32.0 °F 61% 29.75 in 10.0 mi WSW 8.1 mph - N/A   Clear
3:55 PM 44.6 °F 40.2 °F 33.8 °F 66% 29.75 in 10.0 mi WSW 8.1 mph - N/A   Clear
4:15 PM 44.6 °F 40.2 °F 32.0 °F 61% 29.76 in 10.0 mi WSW 8.1 mph - N/A   Clear
4:35 PM 42.8 °F 38.0 °F 32.0 °F 66% 29.76 in 10.0 mi SW 8.1 mph - N/A   Clear
4:55 PM 42.8 °F 38.0 °F 30.2 °F 61% 29.77 in 10.0 mi WSW 8.1 mph - N/A   Clear
5:15 PM 41.0 °F 37.1 °F 30.2 °F 65% 29.77 in 10.0 mi SW 5.8 mph - N/A   Clear
5:35 PM 41.0 °F 37.1 °F 30.2 °F 65% 29.78 in 10.0 mi SW 5.8 mph - N/A   Clear
5:55 PM 37.4 °F 34.9 °F 30.2 °F 75% 29.79 in 10.0 mi SW 3.5 mph - N/A   Clear
6:15 PM 39.2 °F - 30.2 °F 70% 29.80 in 10.0 mi Calm Calm - N/A   Clear
6:35 PM 37.4 °F 34.9 °F 30.2 °F 75% 29.81 in 10.0 mi SW 3.5 mph - N/A   Clear
6:55 PM 37.4 °F 33.8 °F 30.2 °F 75% 29.81 in 10.0 mi SW 4.6 mph - N/A   Clear
7:15 PM 37.4 °F 34.9 °F 28.4 °F 70% 29.82 in 10.0 mi SW 3.5 mph - N/A   Clear
7:35 PM 37.4 °F 33.8 °F 28.4 °F 70% 29.83 in 10.0 mi WSW 4.6 mph - N/A   Clear
7:55 PM 37.4 °F 32.1 °F 28.4 °F 70% 29.83 in 10.0 mi WSW 6.9 mph - N/A   Clear
8:15 PM 37.4 °F 33.8 °F 28.4 °F 70% 29.85 in 10.0 mi West 4.6 mph - N/A   Clear
8:35 PM 39.2 °F 35.9 °F 28.4 °F 65% 29.85 in 10.0 mi West 4.6 mph - N/A   Clear
8:55 PM 39.2 °F 35.9 °F 28.4 °F 65% 29.87 in 10.0 mi West 4.6 mph - N/A   Clear
9:15 PM 39.2 °F 35.9 °F 28.4 °F 65% 29.88 in 10.0 mi West 4.6 mph - N/A   Clear
9:35 PM 39.2 °F 35.0 °F 28.4 °F 65% 29.89 in 10.0 mi WNW 5.8 mph - N/A   Clear
9:55 PM 39.2 °F 35.9 °F 28.4 °F 65% 29.89 in 10.0 mi West 4.6 mph - N/A   Clear
10:15 PM 39.2 °F 37.0 °F 28.4 °F 65% 29.90 in 10.0 mi West 3.5 mph - N/A   Clear
10:35 PM 37.4 °F 34.9 °F 28.4 °F 70% 29.90 in 10.0 mi West 3.5 mph - N/A   Clear
10:55 PM 37.4 °F 34.9 °F 28.4 °F 70% 29.91 in 10.0 mi West 3.5 mph - N/A   Clear
11:15 PM 37.4 °F 34.9 °F 28.4 °F 70% 29.91 in 10.0 mi WNW 3.5 mph - N/A   Clear
11:35 PM 37.4 °F - 28.4 °F 70% 29.90 in 10.0 mi Calm Calm - N/A   Clear
11:55 PM 37.4 °F - 28.4 °F 70% 29.92 in 10.0 mi Calm Calm - N/A   Clear